[[{"header":{"parameterUnit":"m.s-1","parameterCategory":1,"la1":30.2991,"la2":30.254,"lo1":-89.0895,"lo2":-89.0444,"dy":0.0017,"dx":0.0017,"nx":28,"ny":28,"refTime":"2023-09-25T03:00:00:Z","depth":0,"parameterNumber":2,"parameterNumberName":"U-component_of_WINDS"},"data":[0,0,0,0,0,0,0,0,0,0,0,0,0,0,0,0,0,0,0,0,0,0,0,0,0,0,0,0,0,0,0,0,0,0,0,0,0,0,0,0,0,0,0,0,0,0,0,0,0,0,0,0,0,0,0,0,0,0,-0.836,-0.8358,0,-0.8189,-0.8187,-0.8185,-0.8143,-0.8144,-0.8145,-0.8146,-0.7968,-0.7962,-0.7956,0,0,0,0,0,0,0,0,0,0,0,0,0,-0.8649,-0.8644,-0.836,-0.8358,-0.8356,-0.8189,-0.8187,-0.8184,-0.8143,-0.8144,-0.8146,-0.8147,-0.797,-0.7963,-0.7956,0,0,0,0,0,0,0,0,0,0,0,0,0,-0.8505,-0.8643,-0.8361,-0.8315,-0.8309,-0.819,-0.8187,-0.8184,-0.8142,-0.8144,-0.8146,-0.8147,-0.7972,-0.7963,-0.7955,-0.7867,0,0,-0.7928,-0.7924,0,0,0,0,0,0,0,0,-0.8514,-0.8495,-0.8324,-0.8318,-0.8311,-0.8189,-0.8223,-0.8078,-0.8142,-0.8206,-0.8146,-0.8148,-0.804,-0.8026,-0.799,-0.7859,-0.7851,-0.7927,-0.7922,-0.7918,-0.7916,0,0,0,0,0,0,0,-0.8524,-0.8502,-0.8292,-0.8322,-0.8314,-0.8303,-0.8284,-0.8195,-0.8115,-0.82,-0.8197,-0.8177,-0.8037,-0.7998,-0.7985,-0.7849,-0.7928,-0.792,-0.7915,-0.7911,-0.7639,-0.7637,0,0,0,0,0,0,-0.8542,-0.8511,-0.8298,-0.8287,-0.8419,-0.8296,-0.8275,-0.8227,-0.8116,-0.8101,-0.8176,-0.8176,-0.8012,-0.7995,-0.7979,-0.787,-0.7919,-0.791,-0.7905,-0.7641,-0.7638,-0.7636,0,0,0,0,0,0,-0.8548,-0.8523,-0.8305,-0.8398,-0.8369,-0.8289,-0.8235,-0.8222,-0.8184,-0.8098,-0.8083,-0.8152,-0.8013,-0.7991,-0.7896,-0.7863,-0.7906,-0.7898,-0.7643,-0.764,-0.7637,-0.7651,0,0,0,0,0,0,-0.8557,-0.8526,-0.8492,-0.8397,-0.8364,-0.8225,-0.8233,-0.8218,-0.8169,-0.8168,-0.8071,-0.8057,-0.8012,-0.7909,-0.7887,-0.7852,-0.7892,-0.7645,-0.7642,-0.7638,-0.7653,-0.7648,-0.7645,0,0,0,0,0,-0.8567,-0.8502,-0.8491,-0.8465,-0.8321,-0.8223,-0.8204,-0.8156,-0.8167,-0.8132,-0.8077,-0.806,-0.787,-0.79,-0.7875,-0.7836,-0.7647,-0.7643,-0.7638,-0.7654,-0.7649,-0.7645,0,0,0,0,0,0,-0.8593,-0.8488,-0.8475,-0.8377,-0.831,-0.8217,-0.8171,-0.8152,-0.8079,-0.808,-0.8022,-0.8001,-0.791,-0.7863,-0.7898,-0.7746,-0.7759,-0.7749,-0.778,-0.7774,-0.777,-0.7783,-0.7884,0,0,0,0,0,-0.8588,-0.8518,-0.843,-0.8352,-0.8319,-0.8251,-0.8207,-0.8176,-0.8103,-0.8074,-0.8012,-0.7941,-0.7866,-0.7817,-0.7743,-0.7646,-0.7625,-0.7607,-0.7603,-0.76,-0.7592,-0.7539,-0.753,-0.7621,-0.7621,-0.7621,0,0,-0.8575,-0.8509,-0.8469,-0.8356,-0.83,-0.8229,-0.8227,-0.8152,-0.8098,-0.8062,-0.7969,-0.7921,-0.7838,-0.7742,-0.7697,-0.7701,-0.7563,-0.7595,-0.7593,-0.7586,-0.7533,-0.7525,-0.7517,-0.7618,-0.7618,-0.7619,0,0,-0.8516,-0.8459,-0.8389,-0.8333,-0.8249,-0.8205,-0.8188,-0.8098,-0.8065,-0.7971,-0.7943,-0.7878,-0.7749,-0.7692,-0.7646,-0.7568,-0.7549,-0.7545,-0.7524,-0.7472,-0.7465,-0.7458,-0.7431,-0.7422,-0.7538,-0.7538,-0.7538,0,-0.8511,-0.8403,-0.8355,-0.8281,-0.8232,-0.8198,-0.8126,-0.8074,-0.797,-0.7937,-0.7943,-0.7782,-0.7724,-0.7614,-0.7595,-0.7559,-0.7538,-0.7555,-0.747,-0.7463,-0.7456,-0.7429,-0.7419,-0.7538,-0.7538,-0.7538,-0.7538,0,-0.8401,-0.8328,-0.8281,-0.8183,-0.8128,-0.8056,-0.7996,-0.7947,-0.7921,-0.7876,-0.7781,-0.771,-0.7622,-0.7594,-0.7566,-0.748,-0.7486,-0.7482,-0.7493,-0.7448,-0.7422,-0.7411,-0.7538,-0.7538,-0.7538,-0.7538,0,0,-0.8353,-0.823,-0.8214,-0.8169,-0.8075,-0.8016,-0.7943,-0.7857,-0.7817,-0.7746,-0.7683,-0.7576,-0.7572,-0.752,-0.7487,-0.7441,-0.7385,-0.7443,-0.744,-0.7435,-0.7286,-0.729,-0.7279,-0.7372,-0.737,-0.7368,-0.7293,0,-0.8282,-0.8151,-0.8105,-0.7996,-0.7927,-0.7894,-0.783,-0.7765,-0.7721,-0.7656,-0.7607,-0.7533,-0.7533,-0.7502,-0.7455,-0.7401,-0.7354,-0.7406,-0.7312,-0.731,-0.7334,-0.7265,-0.7268,-0.7201,-0.7283,-0.7281,-0.728,0,-0.8182,-0.8113,-0.7997,-0.7912,-0.7882,-0.7825,-0.7744,-0.7682,-0.7608,-0.7579,-0.7523,-0.7493,-0.7414,-0.7431,-0.7323,-0.7359,-0.7318,-0.7286,-0.7282,-0.7272,-0.7292,-0.7253,-0.7178,-0.7169,-0.7263,-0.7264,-0.7265,0,-0.8159,-0.8036,-0.7951,-0.7914,-0.7813,-0.7774,-0.773,-0.7658,-0.761,-0.7539,-0.7507,-0.7428,-0.7384,-0.7323,-0.7273,-0.729,-0.7169,-0.7181,-0.7143,-0.7144,-0.7119,-0.7121,-0.7037,-0.7092,-0.7092,-0.7092,-0.7093,0,-0.8086,-0.8016,-0.794,-0.7888,-0.7809,-0.7758,-0.7681,-0.7635,-0.7571,-0.7509,-0.7476,-0.7418,-0.7355,-0.7289,-0.7249,-0.7166,-0.7146,-0.7121,-0.7111,-0.7124,-0.7127,-0.7096,-0.7099,-0.709,-0.709,-0.7091,-0.7091,0,-0.8046,-0.7992,-0.7898,-0.7811,-0.7787,-0.7733,-0.7659,-0.7607,-0.7562,-0.7484,-0.7463,-0.7393,-0.7314,-0.7258,-0.7155,-0.7129,-0.7039,-0.7029,-0.7065,-0.706,-0.7025,-0.7029,-0.6918,-0.6901,-0.6968,-0.6967,-0.6967,0,-0.8003,-0.7949,-0.7857,-0.7814,-0.777,-0.7701,-0.7653,-0.76,-0.7551,-0.7463,-0.7422,-0.7341,-0.7274,-0.7149,-0.7089,-0.7011,-0.6999,-0.6965,-0.6987,-0.7002,-0.6999,-0.7003,-0.6998,-0.6962,-0.6962,-0.6961,-0.6961,0,-0.7932,-0.7908,-0.784,-0.7763,-0.7707,-0.7643,-0.7579,-0.7546,-0.7482,-0.7428,-0.7348,-0.7296,-0.7193,-0.7113,-0.703,-0.6984,-0.6962,-0.6955,-0.6942,-0.6955,-0.6978,-0.6966,-0.7056,-0.6958,-0.6958,-0.6958,-0.6958,-0.6959,-0.7889,-0.7841,-0.7769,-0.7694,-0.7641,-0.7583,-0.753,-0.748,-0.7412,-0.7325,-0.7298,-0.7215,-0.7143,-0.7029,-0.6982,-0.6916,-0.6918,-0.6899,-0.6894,-0.689,-0.6891,-0.6989,-0.69,-0.69,-0.69,-0.69,-0.69,0,-0.7817,-0.777,-0.7702,-0.7615,-0.7556,-0.7542,-0.7471,-0.7423,-0.7351,-0.7286,-0.7221,-0.7129,-0.7052,-0.6986,-0.6906,-0.6866,-0.6854,-0.6847,-0.685,-0.684,-0.6894,-0.6913,-0.6858,-0.6858,-0.6858,-0.6858,-0.6858,-0.6858,-0.7773,-0.769,-0.7658,-0.7548,-0.7501,-0.742,-0.7381,-0.7327,-0.7275,-0.7175,-0.7111,-0.7069,-0.7004,-0.6919,-0.6848,-0.6831,-0.6803,-0.6799,-0.6779,-0.6831,-0.6836,-0.684,-0.6858,-0.6793,-0.6793,-0.673,-0.673,-0.6729]},{"header":{"parameterUnit":"m.s-1","parameterCategory":1,"la1":30.2991,"la2":30.254,"lo1":-89.0895,"lo2":-89.0444,"dy":0.0017,"dx":0.0017,"nx":28,"ny":28,"refTime":"2023-09-25T03:00:00:Z","depth":0,"parameterNumber":3,"parameterNumberName":"V-component_of_WINDS"},"data":[0,0,0,0,0,0,0,0,0,0,0,0,0,0,0,0,0,0,0,0,0,0,0,0,0,0,0,0,0,0,0,0,0,0,0,0,0,0,0,0,0,0,0,0,0,0,0,0,0,0,0,0,0,0,0,0,0,0,0.6803,0.6803,0,0.6796,0.6796,0.6796,0.6812,0.6813,0.6813,0.6814,0.6806,0.6805,0.6804,0,0,0,0,0,0,0,0,0,0,0,0,0,0.6827,0.6827,0.6803,0.6803,0.6803,0.6796,0.6796,0.6796,0.6812,0.6813,0.6813,0.6814,0.6806,0.6805,0.6804,0,0,0,0,0,0,0,0,0,0,0,0,0,0.6818,0.6827,0.6803,0.681,0.6811,0.6796,0.6796,0.6796,0.6812,0.6813,0.6814,0.6814,0.6806,0.6805,0.6804,0.6782,0,0,0.6801,0.6801,0,0,0,0,0,0,0,0,0.6819,0.6817,0.6809,0.681,0.681,0.6806,0.6802,0.6791,0.6812,0.6811,0.6814,0.6815,0.6805,0.6804,0.6801,0.6782,0.6781,0.6801,0.68,0.68,0.68,0,0,0,0,0,0,0,0.6819,0.6818,0.68,0.6809,0.681,0.6813,0.6812,0.68,0.6804,0.6812,0.6813,0.6812,0.6806,0.6802,0.6801,0.6781,0.6801,0.68,0.6799,0.6799,0.674,0.6739,0,0,0,0,0,0,0.6819,0.6818,0.6801,0.68,0.6817,0.6812,0.6811,0.6806,0.6804,0.6805,0.6811,0.6813,0.6804,0.6802,0.6801,0.6772,0.68,0.6799,0.6798,0.6741,0.674,0.6739,0,0,0,0,0,0,0.682,0.6818,0.6801,0.6809,0.6807,0.681,0.6805,0.6806,0.6803,0.6804,0.6804,0.6807,0.6804,0.6802,0.6786,0.6772,0.6798,0.6797,0.6742,0.6741,0.6739,0.6717,0,0,0,0,0,0,0.682,0.6818,0.681,0.6809,0.6807,0.6787,0.6804,0.6805,0.6801,0.6803,0.68,0.68,0.6805,0.6787,0.6785,0.6772,0.6797,0.6743,0.6742,0.674,0.6719,0.6715,0.6712,0,0,0,0,0,0.6821,0.6805,0.681,0.6807,0.6798,0.6786,0.6785,0.679,0.68,0.6791,0.6792,0.6801,0.6775,0.6786,0.6783,0.6769,0.6744,0.6742,0.674,0.6721,0.6716,0.6712,0,0,0,0,0,0,0.6804,0.6805,0.681,0.6793,0.6789,0.6789,0.6779,0.6785,0.6779,0.6781,0.6787,0.6786,0.6768,0.6767,0.678,0.6746,0.6761,0.6758,0.6747,0.6743,0.6739,0.6739,0.6796,0,0,0,0,0,0.6798,0.679,0.679,0.6775,0.6773,0.6776,0.6771,0.6775,0.6772,0.677,0.677,0.6765,0.6756,0.6749,0.6741,0.6719,0.6717,0.6708,0.6705,0.6702,0.6698,0.6684,0.6679,0.6732,0.6732,0.6732,0,0,0.6786,0.6785,0.678,0.6771,0.6769,0.6758,0.6775,0.6763,0.6755,0.6768,0.6752,0.6751,0.6747,0.6727,0.6718,0.6726,0.6683,0.6699,0.6696,0.6695,0.6681,0.6676,0.6671,0.6731,0.6731,0.6731,0,0,0.6758,0.6758,0.6743,0.674,0.6736,0.6738,0.6735,0.6733,0.6733,0.6717,0.6726,0.6716,0.67,0.6696,0.6691,0.6659,0.6666,0.6656,0.6637,0.6622,0.6618,0.6614,0.66,0.6595,0.6654,0.6654,0.6654,0,0.6744,0.6729,0.6735,0.6723,0.6717,0.6729,0.6713,0.671,0.6703,0.6699,0.6708,0.6687,0.6685,0.6662,0.6654,0.6651,0.6645,0.6656,0.6618,0.6614,0.6611,0.6597,0.6592,0.6652,0.6652,0.6653,0.6653,0,0.6709,0.6699,0.6687,0.668,0.6674,0.666,0.6663,0.6656,0.666,0.6661,0.6643,0.6641,0.6631,0.6626,0.6631,0.6603,0.6608,0.6617,0.6632,0.6604,0.6592,0.6587,0.665,0.6651,0.6651,0.6652,0,0,0.6671,0.6666,0.6661,0.6657,0.6652,0.6644,0.6629,0.6619,0.6612,0.6607,0.6593,0.6579,0.6587,0.6581,0.6586,0.6573,0.6544,0.6584,0.6584,0.6574,0.651,0.6501,0.6495,0.6549,0.6548,0.6548,0.651,0,0.6641,0.6616,0.6621,0.6596,0.6585,0.6595,0.6582,0.6577,0.6576,0.6566,0.6566,0.6554,0.6567,0.6563,0.6552,0.655,0.6531,0.6553,0.6534,0.6534,0.6533,0.6489,0.6481,0.6445,0.6505,0.6504,0.6504,0,0.6603,0.6595,0.6569,0.6564,0.656,0.6548,0.6538,0.6528,0.6522,0.6522,0.6515,0.6521,0.6505,0.6521,0.6497,0.6512,0.6505,0.6503,0.6501,0.6498,0.6516,0.6482,0.6434,0.6428,0.6497,0.6497,0.6498,0,0.6574,0.6558,0.6539,0.6535,0.653,0.652,0.6518,0.6512,0.6505,0.6496,0.6491,0.648,0.6474,0.6465,0.6466,0.6478,0.6441,0.6458,0.6439,0.6438,0.6429,0.6429,0.6376,0.6428,0.6428,0.6428,0.6428,0,0.654,0.6523,0.6526,0.6514,0.6494,0.6499,0.6479,0.6478,0.6472,0.6459,0.6468,0.6455,0.6459,0.6446,0.6448,0.6426,0.6424,0.6422,0.6422,0.642,0.6419,0.6413,0.6415,0.6427,0.6427,0.6427,0.6428,0,0.6503,0.6505,0.6485,0.6481,0.6479,0.6464,0.646,0.6448,0.6448,0.6431,0.6428,0.6427,0.6412,0.6413,0.6397,0.6397,0.6369,0.6374,0.6371,0.6371,0.6351,0.6352,0.629,0.6281,0.6341,0.6341,0.634,0,0.648,0.6467,0.6461,0.6452,0.6449,0.6436,0.6428,0.6432,0.6423,0.6413,0.6402,0.6388,0.6376,0.6351,0.6348,0.6335,0.6337,0.6317,0.6335,0.6332,0.6333,0.6333,0.633,0.6312,0.6312,0.6311,0.6311,0,0.6438,0.6438,0.6427,0.6415,0.6406,0.6397,0.6388,0.6381,0.6384,0.6373,0.6357,0.6348,0.633,0.6315,0.6302,0.6297,0.6303,0.6305,0.6299,0.6296,0.6293,0.6291,0.6358,0.6306,0.6307,0.6307,0.6307,0.6307,0.6405,0.6393,0.6386,0.6372,0.6366,0.6357,0.6345,0.6343,0.633,0.6315,0.6319,0.63,0.6291,0.6274,0.6268,0.6253,0.626,0.6253,0.625,0.6247,0.6244,0.6298,0.6251,0.6251,0.6251,0.6251,0.6251,0,0.6361,0.6356,0.6344,0.6331,0.632,0.6327,0.6318,0.6307,0.6291,0.6282,0.627,0.6251,0.6235,0.6231,0.6215,0.6204,0.6206,0.6199,0.6199,0.6197,0.624,0.6245,0.6197,0.6197,0.6197,0.6197,0.6197,0.6197,0.6336,0.6315,0.6314,0.6289,0.6284,0.6266,0.6259,0.6251,0.6244,0.6221,0.6208,0.6206,0.6198,0.6181,0.6167,0.6166,0.6158,0.615,0.6149,0.6189,0.6194,0.6199,0.6204,0.6149,0.6149,0.6107,0.6107,0.6107]}]]